Pittsburg, KS

9:35 AM CST on December 16, 2017 (GMT -0600)
Atkinson Municipal

Weather History for KPTS - November, 2013

Change the Weather History Date:

Tuesday, November 19, 2013

  Actual Average (KJLN) Record (KJLN)
Temperature  
Mean Temperature 52 °F -  
Max Temperature 61 °F 56 °F 75 °F (1950)
Min Temperature 43 °F 38 °F 21 °F (1969)
Degree Days  
Heating Degree Days 13    
Growing Degree Days 2 (Base 50)    
Moisture  
Dew Point 27 °F    
Average Humidity 40    
Maximum Humidity 55    
Minimum Humidity 25    
Precipitation  
Precipitation 0.00 in - - ()
Sea Level Pressure  
Sea Level Pressure 30.14 in    
Wind  
Wind Speed 8 mph (SSE)    
Max Wind Speed 16 mph    
Max Gust Speed 24 mph    
Visibility 10 miles    
Events      
Averages and records for this station are not official NWS values.
T = Trace of Precipitation, MM = Missing Value Source: NWS Daily Summary

Daily Weather History Graph

Daily Weather History Graph

Search for Another Location

Airport or City:

Trip Planner

Search our weather history database for the weather conditions in past years. The results will help you decide how hot, cold, wet, or windy it might be!

Date:

Astronomy

Nov. 19, 2013 Rise Set
Actual Time 7:02 AM CST 5:05 PM CST
Civil Twilight 6:34 AM CST 5:33 PM CST
Nautical Twilight 6:03 AM CST 6:05 PM CST
Astronomical Twilight 5:31 AM CST 6:36 PM CST
Moon 6:57 PM CST (11/19) 8:42 AM CST (11/19)
Length of Visible Light 10h 58m
Length of Day
10h 02m
Waning Gibbous, 96% of the Moon is Illuminated
Nov 19
Waning Gibbous
Nov 25
Last Quarter
Dec 2
New
Dec 9
First Quarter
Dec 17
Full

Hourly Weather History & Observations

Time (CST) Temp. Windchill Dew Point Humidity Pressure Visibility Wind Dir Wind Speed Gust Speed Precip Events Conditions
12:15 AM 44.8 °F 42.4 °F 28.0 °F 52% 30.24 in 10.0 mi SE 4.6 mph - N/A   Clear
12:35 AM 44.4 °F 42.9 °F 28.2 °F 53% 30.24 in 10.0 mi SE 3.5 mph - N/A   Clear
12:55 AM 44.6 °F 42.2 °F 27.9 °F 52% 30.24 in 10.0 mi SE 4.6 mph - N/A   Clear
1:15 AM 44.4 °F 42.9 °F 27.9 °F 52% 30.24 in 10.0 mi ESE 3.5 mph - N/A   Clear
1:35 AM 44.2 °F 42.7 °F 28.0 °F 53% 30.24 in 10.0 mi SE 3.5 mph - N/A   Clear
1:55 AM 44.1 °F 42.5 °F 28.8 °F 55% 30.24 in 10.0 mi SE 3.5 mph - N/A   Clear
2:15 AM 44.2 °F 41.0 °F 28.9 °F 55% 30.23 in 10.0 mi SE 5.8 mph - N/A   Clear
2:35 AM 45.0 °F 41.2 °F 28.9 °F 53% 30.24 in 10.0 mi SSE 6.9 mph - N/A   Clear
2:55 AM 45.5 °F 43.2 °F 28.9 °F 52% 30.24 in 10.0 mi SSE 4.6 mph - N/A   Clear
3:15 AM 46.2 °F 42.2 °F 28.9 °F 51% 30.23 in 10.0 mi SSE 8.1 mph - N/A   Clear
3:35 AM 47.7 °F - 29.3 °F 49% 30.24 in 10.0 mi SSE 6.9 mph - N/A   Clear
3:55 AM 45.3 °F 43.0 °F 28.2 °F 51% 30.24 in 10.0 mi SE 4.6 mph - N/A   Clear
4:15 AM 44.4 °F 41.2 °F 28.2 °F 53% 30.24 in 10.0 mi SSE 5.8 mph - N/A   Clear
4:35 AM 44.1 °F 40.8 °F 28.6 °F 55% 30.23 in 10.0 mi SE 5.8 mph - N/A   Clear
4:55 AM 44.1 °F 40.8 °F 28.4 °F 54% 30.23 in 10.0 mi SSE 5.8 mph - N/A   Clear
5:15 AM 43.7 °F 40.3 °F 28.0 °F 54% 30.23 in 10.0 mi SSE 5.8 mph - N/A   Clear
5:35 AM 43.7 °F 40.3 °F 27.7 °F 53% 30.22 in 10.0 mi SSE 5.8 mph - N/A   Clear
5:55 AM 43.2 °F 40.5 °F 27.9 °F 55% 30.22 in 10.0 mi SSE 4.6 mph - N/A   Clear
6:15 AM 43.2 °F 40.5 °F 27.7 °F 54% 30.22 in 10.0 mi SSE 4.6 mph - N/A   Clear
6:35 AM 43.3 °F 39.9 °F 27.5 °F 54% 30.22 in 10.0 mi SE 5.8 mph - N/A   Clear
6:55 AM 44.1 °F 40.1 °F 27.3 °F 52% 30.22 in 10.0 mi SSE 6.9 mph - N/A   Clear
7:15 AM 44.2 °F 40.3 °F 26.8 °F 50% 30.22 in 10.0 mi SSE 6.9 mph - N/A   Clear
7:35 AM 44.8 °F 41.0 °F 27.0 °F 50% 30.22 in 10.0 mi SE 6.9 mph - N/A   Clear
7:55 AM 47.1 °F - 28.0 °F 48% 30.22 in 10.0 mi SSE 6.9 mph - N/A   Clear
8:15 AM 48.2 °F - 28.4 °F 46% 30.22 in 10.0 mi SSE 6.9 mph - N/A   Clear
8:35 AM 50.2 °F - 28.8 °F 44% 30.22 in 10.0 mi SSE 10.4 mph - N/A   Clear
8:55 AM 50.9 °F - 28.4 °F 42% 30.22 in 10.0 mi SSE 9.2 mph - N/A   Scattered Clouds
9:15 AM 50.9 °F - 29.1 °F 43% 30.22 in 10.0 mi SE 6.9 mph - N/A   Scattered Clouds
9:35 AM 53.2 °F - 29.8 °F 41% 30.22 in 10.0 mi SSE 10.4 mph - N/A   Clear
9:55 AM 55.8 °F - 27.5 °F 34% 30.22 in 10.0 mi SSE 10.4 mph - N/A   Clear
10:15 AM 56.7 °F - 26.4 °F 31% 30.21 in 10.0 mi SSE 12.7 mph 16.1 mph N/A   Clear
10:35 AM 58.3 °F - 25.9 °F 29% 30.21 in 10.0 mi SSE 15.0 mph 19.6 mph N/A   Clear
10:55 AM 58.8 °F - 25.5 °F 28% 30.20 in 10.0 mi SSE 10.4 mph - N/A   Clear
11:15 AM 59.2 °F - 26.6 °F 29% 30.19 in 10.0 mi SSE 11.5 mph - N/A   Clear
11:35 AM 60.1 °F - 26.4 °F 28% 30.18 in 10.0 mi South 16.1 mph 21.9 mph N/A   Clear
11:55 AM 60.8 °F - 25.0 °F 25% 30.18 in 10.0 mi SSE 16.1 mph 23.0 mph N/A   Clear
12:15 PM 60.8 °F - 25.5 °F 26% 30.17 in 10.0 mi SE 15.0 mph - N/A   Scattered Clouds
12:35 PM 60.8 °F - 26.1 °F 27% 30.16 in 10.0 mi South 15.0 mph 20.7 mph N/A   Scattered Clouds
12:55 PM 61.3 °F - 25.2 °F 25% 30.15 in 10.0 mi SSE 15.0 mph 24.2 mph N/A   Clear
1:15 PM 60.8 °F - 25.3 °F 26% 30.14 in 10.0 mi SE 12.7 mph 19.6 mph N/A   Clear
1:35 PM 61.0 °F - 25.7 °F 26% 30.12 in 10.0 mi SSE 16.1 mph 23.0 mph N/A   Clear
1:55 PM 60.3 °F - 26.1 °F 27% 30.11 in 10.0 mi SSE 12.7 mph 17.3 mph N/A   Clear
2:15 PM 58.6 °F - 25.7 °F 28% 30.11 in 10.0 mi SE 13.8 mph 19.6 mph N/A   Clear
2:35 PM 58.6 °F - 25.5 °F 28% 30.09 in 10.0 mi SSE 11.5 mph - N/A   Scattered Clouds
2:55 PM 58.6 °F - 25.9 °F 29% 30.08 in 10.0 mi SSE 13.8 mph 19.6 mph N/A   Clear
3:15 PM 58.3 °F - 26.1 °F 29% 30.07 in 10.0 mi SSE 13.8 mph 17.3 mph N/A   Scattered Clouds
3:35 PM 58.3 °F - 26.8 °F 30% 30.07 in 10.0 mi SE 9.2 mph 17.3 mph N/A   Scattered Clouds
3:55 PM 58.3 °F - 27.1 °F 30% 30.07 in 10.0 mi SE 11.5 mph - N/A   Clear
4:15 PM 58.3 °F - 27.3 °F 31% 30.06 in 10.0 mi SE 10.4 mph - N/A   Scattered Clouds
4:35 PM 58.3 °F - 28.0 °F 32% 30.05 in 10.0 mi SE 10.4 mph 18.4 mph N/A   Scattered Clouds
4:55 PM 57.4 °F - 27.9 °F 32% 30.05 in 10.0 mi SSE 9.2 mph - N/A   Scattered Clouds
5:15 PM 55.9 °F - 27.1 °F 33% 30.05 in 10.0 mi SE 9.2 mph - N/A   Scattered Clouds
5:35 PM 55.8 °F - 27.1 °F 33% 30.05 in 10.0 mi SE 10.4 mph - N/A   Mostly Cloudy
5:55 PM 55.8 °F - 27.1 °F 33% 30.05 in 10.0 mi SE 12.7 mph - N/A   Mostly Cloudy
6:15 PM 55.8 °F - 27.7 °F 34% 30.05 in 10.0 mi SE 10.4 mph - N/A   Mostly Cloudy
6:35 PM 55.8 °F - 27.9 °F 34% 30.04 in 10.0 mi SE 10.4 mph 17.3 mph N/A   Mostly Cloudy
6:55 PM 55.8 °F - 27.9 °F 34% 30.04 in 10.0 mi SSE 11.5 mph 17.3 mph N/A   Mostly Cloudy
7:15 PM 55.8 °F - 28.2 °F 35% 30.03 in 10.0 mi SSE 11.5 mph 18.4 mph N/A   Overcast
7:35 PM 55.8 °F - 28.8 °F 36% 30.04 in 10.0 mi SSE 11.5 mph 17.3 mph N/A   Overcast
7:55 PM 55.8 °F - 28.9 °F 36% 30.03 in 10.0 mi SSE 13.8 mph 19.6 mph N/A   Mostly Cloudy
8:15 PM 55.8 °F - 28.8 °F 36% 30.04 in 10.0 mi SSE 12.7 mph 16.1 mph N/A   Mostly Cloudy
8:35 PM 55.8 °F - 28.4 °F 35% 30.03 in 10.0 mi SSE 12.7 mph - N/A   Mostly Cloudy
8:55 PM 55.8 °F - 28.8 °F 36% 30.03 in 10.0 mi SSE 15.0 mph 18.4 mph N/A   Mostly Cloudy
9:15 PM 54.1 °F - 27.9 °F 36% 30.02 in 10.0 mi SSE 11.5 mph 17.3 mph N/A   Mostly Cloudy
9:35 PM 53.2 °F - 27.3 °F 37% 30.02 in 10.0 mi SSE 11.5 mph - N/A   Mostly Cloudy
9:55 PM 53.2 °F - 27.3 °F 37% 30.02 in 10.0 mi SSE 13.8 mph 18.4 mph N/A   Scattered Clouds
10:15 PM 53.2 °F - 27.3 °F 37% 30.02 in 10.0 mi SSE 11.5 mph 17.3 mph N/A   Mostly Cloudy
10:35 PM 52.9 °F - 27.1 °F 37% 30.02 in 10.0 mi SSE 10.4 mph - N/A   Mostly Cloudy
10:55 PM 51.4 °F - 26.6 °F 38% 30.02 in 10.0 mi SSE 9.2 mph - N/A   Scattered Clouds
11:15 PM 51.6 °F - 26.4 °F 38% 30.02 in 10.0 mi SSE 9.2 mph - N/A   Mostly Cloudy
11:35 PM 52.2 °F - 26.2 °F 37% 30.02 in 10.0 mi SSE 10.4 mph - N/A   Overcast
11:55 PM 53.1 °F - 25.3 °F 34% 30.02 in 10.0 mi South 9.2 mph - N/A   Overcast